TimeEDT,TemperatureF,Dew PointF,Humidity,Sea Level PressureIn,VisibilityMPH,Wind Direction,Wind SpeedMPH,Gust SpeedMPH,PrecipitationIn,Events,Conditions,WindDirDegrees,DateUTC
12:53 AM,73.9,71.1,91,30.14,10.0,East,3.5,-,N/A,,Clear,100,2013-07-03 04:53:00
1:53 AM,73.9,71.1,91,30.13,10.0,Calm,Calm,-,N/A,,Clear,0,2013-07-03 05:53:00
2:53 AM,73.0,71.1,93,30.12,8.0,East,4.6,-,N/A,,Scattered Clouds,100,2013-07-03 06:53:00
3:53 AM,73.0,72.0,96,30.12,10.0,East,3.5,-,N/A,,Clear,90,2013-07-03 07:53:00
4:53 AM,73.9,72.0,93,30.11,10.0,East,4.6,-,N/A,,Clear,90,2013-07-03 08:53:00
5:53 AM,73.9,73.0,97,30.12,9.0,ESE,3.5,-,N/A,,Overcast,110,2013-07-03 09:53:00
6:53 AM,75.0,73.0,94,30.14,10.0,SE,4.6,-,N/A,,Overcast,130,2013-07-03 10:53:00
7:53 AM,75.9,73.0,91,30.15,10.0,SE,4.6,-,0.00,,Mostly Cloudy,130,2013-07-03 11:53:00
8:53 AM,79.0,75.0,88,30.16,10.0,SSE,5.8,-,N/A,,Mostly Cloudy,160,2013-07-03 12:53:00
9:53 AM,81.0,75.0,82,30.16,10.0,SSE,9.2,-,0.04,,Mostly Cloudy,150,2013-07-03 13:53:00
10:53 AM,82.9,75.9,79,30.16,10.0,SSE,12.7,-,0.05,,Mostly Cloudy,150,2013-07-03 14:53:00
11:53 AM,82.0,73.9,76,30.15,10.0,SSE,17.3,-,0.03,,Mostly Cloudy,160,2013-07-03 15:53:00
12:53 PM,87.1,75.0,67,30.15,10.0,SSE,20.7,26.5,N/A,,Mostly Cloudy,160,2013-07-03 16:53:00
1:53 PM,87.1,73.9,65,30.14,10.0,SSE,18.4,25.3,N/A,,Mostly Cloudy,150,2013-07-03 17:53:00
2:53 PM,86.0,73.9,67,30.14,10.0,SSE,15.0,-,N/A,,Mostly Cloudy,150,2013-07-03 18:53:00
3:53 PM,84.0,73.0,69,30.13,10.0,SSE,13.8,24.2,N/A,,Mostly Cloudy,160,2013-07-03 19:53:00
4:53 PM,84.0,73.9,72,30.13,10.0,SSE,12.7,-,N/A,,Mostly Cloudy,160,2013-07-03 20:53:00
5:53 PM,84.0,73.9,72,30.13,10.0,SSE,11.5,-,N/A,,Mostly Cloudy,160,2013-07-03 21:53:00
6:39 PM,82.4,73.4,74,30.13,10.0,SSE,16.1,21.9,N/A,,Mostly Cloudy,150,2013-07-03 22:39:00
6:53 PM,82.9,73.9,74,30.13,8.0,South,13.8,-,0.00,Rain,Light Rain,170,2013-07-03 22:53:00
7:53 PM,80.1,75.9,87,30.15,10.0,SSE,8.1,-,0.00,,Scattered Clouds,150,2013-07-03 23:53:00
8:53 PM,79.0,75.0,88,30.16,10.0,SSE,5.8,-,N/A,,Scattered Clouds,150,2013-07-04 00:53:00
9:53 PM,79.0,75.0,88,30.17,10.0,SE,6.9,-,N/A,,Mostly Cloudy,140,2013-07-04 01:53:00
10:01 PM,80.6,75.2,84,30.17,10.0,SE,6.9,-,N/A,,Mostly Cloudy,130,2013-07-04 02:01:00
10:27 PM,78.8,75.2,89,30.18,10.0,SE,8.1,-,N/A,,Mostly Cloudy,130,2013-07-04 02:27:00
10:53 PM,80.1,75.0,85,30.18,10.0,SE,9.2,-,N/A,,Mostly Cloudy,130,2013-07-04 02:53:00
11:49 PM,78.8,75.2,89,30.19,10.0,SSE,8.1,-,0.00,,Mostly Cloudy,150,2013-07-04 03:49:00
11:53 PM,79.0,75.0,88,30.19,10.0,SE,8.1,-,0.00,,Mostly Cloudy,140,2013-07-04 03:53:00